Home   Weather   Conception Bay South   Past weeks

Flag for Canada Past Weather in Conception Bay South, Newfoundland and Labrador, Canada — Yesterday and Last 2 Weeks

39 °F


Feels Like: 32 °F
Forecast: N/A
Wind: 12 mph from Northeast

Location: St. John's

Current Time: Oct 26, 2016 at 7:02:31 PM

Latest Report: Oct 26, 2016 at 6:30 PM

Visibility: 15 mi

Pressure: 30.22 "Hg

Humidity: 81%

Dew Point: 34 °F

Location of Conception Bay SouthLocation

Past Weather in Conception Bay South — Graph


Conception Bay South Temperature Yesterday

Maximum temperature yesterday: 54 °F (at 11:30 AM)
Minimum temperature yesterday: 39 °F (at 11:30 PM)
Average temperature yesterday: 47 °F

High & Low Weather Summary for the Past Weeks

High70 °F (Oct 23, 3:30 AM)100% (Oct 15, 4:30 AM)30.51 "Hg (Oct 15, 4:30 AM)
Low32 °F (Oct 21, 2:30 AM)33% (Oct 13, 11:30 AM)29.50 "Hg (Oct 24, 5:30 AM)
Average46 °F84%30.01 "Hg
* Reported Oct 11 5:30 PM — Oct 26 5:30 PM, Conception Bay South, Weather by CustomWeather, © 2016

Note: Actual official high and low records may vary slightly from our data, if they occured in-between our weather recording intervals... More about our weather records


Conception Bay South Weather History for the Previous 24 Hours

Scroll right to see more
Time TempWeatherWind HumidityBarometerVisibility
5:30 PM
Wed, Oct 26
39 °FPassing clouds.12 mph81%30.21 "Hg15 mi
4:30 PM39 °FPartly sunny.10 mph81%30.19 "Hg15 mi
3:30 PM39 °FPartly sunny.15 mph87%30.18 "Hg15 mi
2:30 PM41 °FPartly sunny.13 mph81%30.17 "Hg15 mi
1:30 PM41 °FPartly sunny.9 mph81%30.16 "Hg15 mi
12:30 PM41 °FPartly sunny.9 mph87%30.15 "Hg15 mi
11:30 AM41 °FPartly sunny.8 mph87%30.15 "Hg15 mi
10:30 AM41 °FPartly sunny.8 mph87%30.15 "Hg15 mi
9:30 AM39 °FDrizzle. Mostly cloudy.8 mph93%30.13 "Hg15 mi
8:30 AM39 °FBroken clouds.5 mph93%30.10 "Hg15 mi
7:30 AM37 °FPartly sunny.2 mph93%30.08 "Hg15 mi
6:30 AM39 °FPassing clouds.3 mph93%30.04 "Hg15 mi
6:15 AM39 °FSprinkles. Passing clouds.3 mph93%30.04 "Hg15 mi
5:30 AM39 °FPassing clouds.3 mph93%30.03 "Hg15 mi
4:30 AM37 °FPartly cloudy.5 mph100%30.00 "Hg15 mi
3:30 AM37 °FPassing clouds.6 mph93%29.98 "Hg15 mi
2:30 AM37 °FPassing clouds.7 mph93%29.97 "Hg15 mi
1:30 AM39 °FClear.7 mph87%29.95 "Hg15 mi
12:30 AM41 °FPassing clouds.12 mph81%29.93 "Hg15 mi
11:30 PM
Tue, Oct 25
39 °FPassing clouds.10 mph87%29.92 "Hg15 mi
10:30 PM41 °FPassing clouds.16 mph81%29.91 "Hg15 mi
9:30 PM41 °FPassing clouds.12 mph81%29.89 "Hg15 mi
8:30 PM43 °FPassing clouds.15 mph76%29.87 "Hg15 mi
7:30 PM43 °FPassing clouds.16 mph76%29.85 "Hg15 mi
Weather by CustomWeather, © 2016

See weather overviewHow to use our weather pages